RRR9724 EGQS-EGQS

Flight info

Callsign RRR9724
Flight time 2h 18m
Altitude 32000
Route D053Y DCT PC31I DCT SODKI DCT 5848N00346W 5849N00401W 5853N00413W 5858N00417W 5901N00417W 5902N00411W 5901N00410W 5900N00411W 5900N00419W 5903N00423W 5904N00419W 5905N00410W 5902N00402W 5855N00352W DCT SODKI DCT 5835N00321W DCT FD13 DCT EGPC DCT 5824N00307W 5818N00317W 5811N00322W 5804N00325W 5757N00327W 5751N00328W 5747N00332W 5740N00330W DCT 5739N00326W
Aircraft A332/H-SDE3GHIJ2J3J5M1RVWXY/LB2D1

Departure

Time 2026-05-06 13:09
Airport RAF Lossiemouth (EGQS)

Arrival

Time 2026-05-06 15:27
Airport RAF Lossiemouth (EGQS)
Time Latitude Longitude Altitude Speed Heading
2026-05-06 13:02 57.71433 -3.33302 41 ft 0 kts 139°
2026-05-06 13:05 57.71370 -3.33237 40 ft 15 kts 153°
2026-05-06 13:05 57.71278 -3.33213 42 ft 13 kts 209°
2026-05-06 13:05 57.71212 -3.33332 43 ft 13 kts 228°
2026-05-06 13:06 57.71065 -3.33636 45 ft 62 kts 228°
2026-05-06 13:06 57.70788 -3.34234 48 ft 58 kts 229°
2026-05-06 13:06 57.70527 -3.34654 46 ft 45 kts 217°
2026-05-06 13:06 57.70283 -3.35001 41 ft 43 kts 218°
2026-05-06 13:07 57.70051 -3.35341 37 ft 42 kts 217°
2026-05-06 13:07 57.69905 -3.35473 35 ft 11 kts 176°
2026-05-06 13:07 57.69821 -3.35368 34 ft 22 kts 129°
2026-05-06 13:07 57.69843 -3.35264 33 ft 8 kts 48°
2026-05-06 13:08 57.69854 -3.35244 33 ft 0 kts 46°
2026-05-06 13:08 57.69854 -3.35243 33 ft 2 kts 46°
2026-05-06 13:08 57.70049 -3.34893 38 ft 77 kts 43°
2026-05-06 13:08 57.70615 -3.33884 48 ft 145 kts 44°
2026-05-06 13:09 57.71460 -3.32340 115 ft 185 kts 44°
2026-05-06 13:09 57.72395 -3.30737 919 ft 188 kts 43°
2026-05-06 13:09 57.73423 -3.28995 1470 ft 209 kts 42°
2026-05-06 13:09 57.74522 -3.27135 2105 ft 226 kts 42°
2026-05-06 13:10 57.75731 -3.25092 2825 ft 231 kts 42°
2026-05-06 13:10 57.76906 -3.23111 3894 ft 225 kts 42°
2026-05-06 13:10 57.78210 -3.20916 3613 ft 278 kts 42°
2026-05-06 13:10 57.79727 -3.18289 3274 ft 324 kts 44°
2026-05-06 13:11 57.81443 -3.15196 3316 ft 351 kts 44°
2026-05-06 13:11 57.83156 -3.12104 3993 ft 331 kts 44°
2026-05-06 13:11 57.84788 -3.09156 4854 ft 319 kts 44°
2026-05-06 13:11 57.86337 -3.06331 5890 ft 303 kts 44°
2026-05-06 13:12 57.87801 -3.03626 6925 ft 286 kts 44°
2026-05-06 13:12 57.89193 -3.01013 7733 ft 280 kts 44°
2026-05-06 13:12 57.90575 -2.98397 8367 ft 283 kts 44°
2026-05-06 13:12 57.92009 -2.95854 9082 ft 284 kts 32°
2026-05-06 13:13 57.93769 -2.94417 9593 ft 284 kts 10°
2026-05-06 13:13 57.95758 -2.93827 9705 ft 282 kts
2026-05-06 13:13 57.97709 -2.93409 9838 ft 284 kts
2026-05-06 13:13 57.99681 -2.92998 10328 ft 286 kts
2026-05-06 13:14 58.01636 -2.92562 11027 ft 287 kts
2026-05-06 13:14 58.03631 -2.92094 11666 ft 291 kts
2026-05-06 13:14 58.05652 -2.91605 12308 ft 294 kts
2026-05-06 13:14 58.07697 -2.91103 12953 ft 298 kts
2026-05-06 13:15 58.09766 -2.90592 13605 ft 302 kts
2026-05-06 13:15 58.11864 -2.90072 14221 ft 305 kts
2026-05-06 13:15 58.13974 -2.89548 14822 ft 308 kts
2026-05-06 13:15 58.16111 -2.89017 15425 ft 310 kts
2026-05-06 13:16 58.18259 -2.88484 16034 ft 313 kts
2026-05-06 13:16 58.20428 -2.87945 16634 ft 316 kts
2026-05-06 13:16 58.22601 -2.87405 17226 ft 319 kts
2026-05-06 13:16 58.24814 -2.86854 17824 ft 322 kts
2026-05-06 13:17 58.27049 -2.86297 18428 ft 325 kts
2026-05-06 13:17 58.29293 -2.85736 18968 ft 327 kts
2026-05-06 13:17 58.31564 -2.85166 19513 ft 329 kts
2026-05-06 13:17 58.33850 -2.84593 20059 ft 332 kts
2026-05-06 13:18 58.36144 -2.84017 20602 ft 334 kts
2026-05-06 13:18 58.38427 -2.83974 21116 ft 324 kts 341°
2026-05-06 13:18 58.40478 -2.85469 21649 ft 313 kts 323°
2026-05-06 13:18 58.42280 -2.87772 22230 ft 311 kts 318°
2026-05-06 13:19 58.44015 -2.90233 22811 ft 311 kts 317°
2026-05-06 13:19 58.45745 -2.92744 23390 ft 312 kts 317°
2026-05-06 13:19 58.47477 -2.95271 23902 ft 314 kts 317°
2026-05-06 13:19 58.49211 -2.97806 24370 ft 315 kts 317°
2026-05-06 13:20 58.50960 -3.00363 24864 ft 317 kts 317°
2026-05-06 13:20 58.52708 -3.02922 25315 ft 318 kts 317°
2026-05-06 13:20 58.54476 -3.05513 25784 ft 320 kts 317°
2026-05-06 13:20 58.56245 -3.08106 26249 ft 321 kts 317°
2026-05-06 13:21 58.58022 -3.10715 26732 ft 323 kts 317°
2026-05-06 13:21 58.59790 -3.13311 27186 ft 324 kts 317°
2026-05-06 13:21 58.61588 -3.15955 27640 ft 326 kts 317°
2026-05-06 13:21 58.63301 -3.18475 28099 ft 327 kts 317°
2026-05-06 13:22 58.65111 -3.21141 28590 ft 329 kts 317°
2026-05-06 13:22 58.66934 -3.23827 29037 ft 331 kts 317°
2026-05-06 13:22 58.68772 -3.26538 29507 ft 332 kts 317°
2026-05-06 13:22 58.70611 -3.29251 29944 ft 334 kts 317°
2026-05-06 13:23 58.72464 -3.31989 30335 ft 337 kts 317°
2026-05-06 13:23 58.74324 -3.34778 30649 ft 340 kts 314°
2026-05-06 13:23 58.75940 -3.38061 30947 ft 337 kts 301°
2026-05-06 13:23 58.77064 -3.42000 31280 ft 337 kts 290°
2026-05-06 13:24 58.77773 -3.46317 31610 ft 339 kts 283°
2026-05-06 13:24 58.78233 -3.50801 31874 ft 344 kts 279°
2026-05-06 13:24 58.78579 -3.55372 31958 ft 344 kts 278°
2026-05-06 13:25 58.79184 -3.64556 32002 ft 346 kts 277°
2026-05-06 13:25 58.79796 -3.73708 32001 ft 346 kts 278°
2026-05-06 13:26 58.80422 -3.82926 32000 ft 346 kts 278°
2026-05-06 13:26 58.81040 -3.92130 31996 ft 346 kts 278°
2026-05-06 13:27 58.81649 -4.01350 31997 ft 346 kts 278°
2026-05-06 13:27 58.82253 -4.10563 31996 ft 346 kts 278°
2026-05-06 13:28 58.82854 -4.19789 31996 ft 346 kts 278°
2026-05-06 13:28 58.83450 -4.29013 31997 ft 346 kts 278°
2026-05-06 13:29 58.84040 -4.38263 31991 ft 346 kts 277°
2026-05-06 13:29 58.84619 -4.47437 31993 ft 346 kts 277°
2026-05-06 13:30 58.85195 -4.56670 31991 ft 346 kts 277°
2026-05-06 13:30 58.85765 -4.65909 31989 ft 346 kts 277°
2026-05-06 13:31 58.86336 -4.75152 31991 ft 346 kts 280°
2026-05-06 13:31 58.87077 -4.79565 31990 ft 347 kts 297°
2026-05-06 13:31 58.88519 -4.83320 31984 ft 353 kts 313°
2026-05-06 13:31 58.90553 -4.86089 31984 ft 363 kts 329°
2026-05-06 13:32 58.92996 -4.87572 31976 ft 376 kts 345°
2026-05-06 13:32 58.95665 -4.87607 31980 ft 392 kts
2026-05-06 13:32 58.98330 -4.86130 31973 ft 408 kts 17°
2026-05-06 13:32 59.00785 -4.83188 31969 ft 423 kts 33°
2026-05-06 13:33 59.02806 -4.78999 31966 ft 437 kts 50°
2026-05-06 13:33 59.04263 -4.73751 31962 ft 448 kts 66°
2026-05-06 13:33 59.05009 -4.67829 31958 ft 455 kts 82°
2026-05-06 13:33 59.04972 -4.61665 31958 ft 459 kts 99°
2026-05-06 13:34 59.04147 -4.55680 31961 ft 459 kts 115°
2026-05-06 13:34 59.02594 -4.50323 31957 ft 454 kts 132°
2026-05-06 13:34 59.00438 -4.45973 31957 ft 445 kts 148°
2026-05-06 13:35 58.95466 -4.38881 31962 ft 449 kts 139°
2026-05-06 13:35 58.93463 -4.34184 31970 ft 456 kts 127°
2026-05-06 13:35 58.91845 -4.28884 31992 ft 459 kts 119°
2026-05-06 13:36 58.88929 -4.17869 31997 ft 458 kts 130°
2026-05-06 13:36 58.86816 -4.13374 31994 ft 450 kts 146°
2026-05-06 13:36 58.84232 -4.10092 32004 ft 439 kts 162°
2026-05-06 13:36 58.81395 -4.08249 32008 ft 425 kts 178°
2026-05-06 13:37 58.78502 -4.07910 32009 ft 410 kts 194°
2026-05-06 13:37 58.75780 -4.09044 32013 ft 394 kts 210°
2026-05-06 13:37 58.73426 -4.11502 32012 ft 379 kts 226°
2026-05-06 13:37 58.71614 -4.15043 32017 ft 366 kts 242°
2026-05-06 13:38 58.70491 -4.19269 32009 ft 357 kts 257°
2026-05-06 13:38 58.70105 -4.23926 32011 ft 351 kts 273°
2026-05-06 13:38 58.70501 -4.28534 32016 ft 351 kts 289°
2026-05-06 13:38 58.71644 -4.32693 32017 ft 355 kts 305°
2026-05-06 13:39 58.73441 -4.36024 32021 ft 364 kts 321°
2026-05-06 13:39 58.75753 -4.38213 32023 ft 377 kts 337°
2026-05-06 13:39 58.78383 -4.39024 32028 ft 391 kts 353°
2026-05-06 13:39 58.81098 -4.38529 32030 ft 402 kts
2026-05-06 13:40 58.83844 -4.37304 32032 ft 408 kts
2026-05-06 13:40 58.89241 -4.33374 32037 ft 419 kts 18°
2026-05-06 13:41 58.94612 -4.29450 32037 ft 405 kts
2026-05-06 13:41 59.00129 -4.28337 32040 ft 396 kts 355°
2026-05-06 13:42 59.05590 -4.26253 32032 ft 417 kts 19°
2026-05-06 13:42 59.08044 -4.23201 32030 ft 431 kts 34°
2026-05-06 13:42 59.10102 -4.18846 32008 ft 444 kts 50°
2026-05-06 13:42 59.11568 -4.13491 32003 ft 454 kts 66°
2026-05-06 13:43 59.12323 -4.07488 32003 ft 460 kts 82°
2026-05-06 13:43 59.12299 -4.01235 31996 ft 463 kts 98°
2026-05-06 13:43 59.11493 -3.95198 31985 ft 461 kts 115°
2026-05-06 13:43 59.09952 -3.89749 31977 ft 456 kts 131°
2026-05-06 13:44 59.07806 -3.85316 31970 ft 446 kts 148°
2026-05-06 13:44 59.05217 -3.82175 31962 ft 433 kts 164°
2026-05-06 13:44 59.02395 -3.80523 31956 ft 417 kts 181°
2026-05-06 13:44 58.99570 -3.80427 31946 ft 399 kts 198°
2026-05-06 13:45 58.96955 -3.81847 32010 ft 386 kts 214°
2026-05-06 13:45 58.93579 -3.87012 32004 ft 364 kts 241°
2026-05-06 13:45 58.92406 -3.91238 32002 ft 353 kts 255°
2026-05-06 13:46 58.91078 -4.00335 32002 ft 352 kts 254°
2026-05-06 13:46 58.88952 -4.08949 32000 ft 351 kts 261°
2026-05-06 13:47 58.88732 -4.13602 32001 ft 346 kts 277°
2026-05-06 13:47 58.89290 -4.18046 31998 ft 347 kts 293°
2026-05-06 13:47 58.90552 -4.22054 32003 ft 351 kts 305°
2026-05-06 13:47 58.92171 -4.25611 32009 ft 354 kts 310°
2026-05-06 13:48 58.95855 -4.32060 32013 ft 359 kts 318°
2026-05-06 13:48 58.98065 -4.34449 32008 ft 371 kts 334°
2026-05-06 13:48 59.00632 -4.35478 32010 ft 386 kts 350°
2026-05-06 13:49 59.03358 -4.35009 32010 ft 402 kts
2026-05-06 13:49 59.06015 -4.33015 32000 ft 419 kts 22°
2026-05-06 13:49 59.08398 -4.29579 31999 ft 434 kts 39°
2026-05-06 13:49 59.10295 -4.24931 31998 ft 446 kts 55°
2026-05-06 13:50 59.11567 -4.19344 32005 ft 456 kts 70°
2026-05-06 13:50 59.12169 -4.13267 32002 ft 462 kts 85°
2026-05-06 13:50 59.11999 -4.07083 31998 ft 464 kts 101°
2026-05-06 13:50 59.11049 -4.01097 31992 ft 462 kts 118°
2026-05-06 13:51 59.09386 -3.95792 31989 ft 457 kts 134°
2026-05-06 13:51 59.07139 -3.91537 31988 ft 447 kts 150°
2026-05-06 13:51 59.04480 -3.88605 31982 ft 434 kts 167°
2026-05-06 13:51 59.01615 -3.87167 31982 ft 418 kts 183°
2026-05-06 13:52 58.98762 -3.87189 31984 ft 405 kts 194°
2026-05-06 13:52 58.95930 -3.87442 31980 ft 413 kts 184°
2026-05-06 13:52 58.93047 -3.86449 31981 ft 428 kts 169°
2026-05-06 13:52 58.90260 -3.84234 31977 ft 434 kts 165°
2026-05-06 13:53 58.84775 -3.79288 31993 ft 441 kts 154°
2026-05-06 13:53 58.79809 -3.72100 32001 ft 450 kts 143°
2026-05-06 13:54 58.75171 -3.64095 32010 ft 451 kts 143°
2026-05-06 13:54 58.70495 -3.56007 32021 ft 452 kts 143°
2026-05-06 13:55 58.65821 -3.47924 32035 ft 452 kts 143°
2026-05-06 13:55 58.61133 -3.39843 32046 ft 453 kts 143°
2026-05-06 13:56 58.56437 -3.31805 31992 ft 451 kts 143°
2026-05-06 13:56 58.51768 -3.23962 31996 ft 443 kts 144°
2026-05-06 13:57 58.47128 -3.16150 31998 ft 446 kts 143°
2026-05-06 13:57 58.42520 -3.08375 31995 ft 444 kts 143°
2026-05-06 13:58 58.37889 -3.00583 31999 ft 443 kts 143°
2026-05-06 13:58 58.33254 -2.92818 32000 ft 443 kts 143°
2026-05-06 13:59 58.28612 -2.85067 32009 ft 443 kts 143°
2026-05-06 13:59 58.23977 -2.77357 32017 ft 443 kts 144°
2026-05-06 14:00 58.19338 -2.69671 32013 ft 442 kts 144°
2026-05-06 14:00 58.14707 -2.62036 32003 ft 439 kts 144°
2026-05-06 14:01 58.10134 -2.54527 31988 ft 436 kts 144°
2026-05-06 14:01 58.05554 -2.47034 31971 ft 434 kts 144°
2026-05-06 14:02 58.00996 -2.39605 31964 ft 432 kts 144°
2026-05-06 14:02 57.96462 -2.32243 32008 ft 436 kts 144°
2026-05-06 14:03 57.91816 -2.24726 32010 ft 437 kts 144°
2026-05-06 14:03 57.89667 -2.20748 32013 ft 441 kts 131°
2026-05-06 14:03 57.88069 -2.15781 32011 ft 448 kts 114°
2026-05-06 14:04 57.87196 -2.10141 32009 ft 451 kts 97°
2026-05-06 14:04 57.87119 -2.04258 32017 ft 450 kts 81°
2026-05-06 14:04 57.87844 -1.98569 32014 ft 446 kts 64°
2026-05-06 14:04 57.89307 -1.93466 32019 ft 439 kts 51°
2026-05-06 14:05 57.92878 -1.84111 32022 ft 440 kts 50°
2026-05-06 14:05 57.96453 -1.74809 32034 ft 442 kts 50°
2026-05-06 14:06 58.00065 -1.65391 32044 ft 443 kts 50°
2026-05-06 14:06 58.03681 -1.55943 32051 ft 444 kts 50°
2026-05-06 14:07 58.07308 -1.46441 32055 ft 445 kts 50°
2026-05-06 14:07 58.10904 -1.36989 32055 ft 446 kts 50°
2026-05-06 14:08 58.14526 -1.27436 32045 ft 446 kts 50°
2026-05-06 14:08 58.18141 -1.17884 32043 ft 446 kts 50°
2026-05-06 14:09 58.21761 -1.08303 32046 ft 446 kts 50°
2026-05-06 14:09 58.25373 -0.98719 32047 ft 446 kts 50°
2026-05-06 14:10 58.28987 -0.89108 32038 ft 446 kts 50°
2026-05-06 14:10 58.32588 -0.79508 32031 ft 446 kts 50°
2026-05-06 14:11 58.36078 -0.69726 32017 ft 449 kts 61°
2026-05-06 14:11 58.37121 -0.64105 32005 ft 454 kts 78°
2026-05-06 14:11 58.37383 -0.58191 31996 ft 454 kts 94°
2026-05-06 14:12 58.36841 -0.52286 31985 ft 451 kts 111°
2026-05-06 14:12 58.35536 -0.46934 31981 ft 443 kts 128°
2026-05-06 14:12 58.33580 -0.42525 31974 ft 432 kts 145°
2026-05-06 14:12 58.31146 -0.39355 31975 ft 419 kts 159°
2026-05-06 14:13 58.28477 -0.37311 31984 ft 405 kts 176°
2026-05-06 14:13 58.25707 -0.36680 32016 ft 398 kts 190°
2026-05-06 14:13 58.20359 -0.38552 32023 ft 388 kts 200°
2026-05-06 14:14 58.15107 -0.40846 32026 ft 387 kts 200°
2026-05-06 14:14 58.09851 -0.43156 32024 ft 388 kts 200°
2026-05-06 14:15 58.04627 -0.45463 32022 ft 388 kts 200°
2026-05-06 14:15 57.99363 -0.47798 32023 ft 388 kts 200°
2026-05-06 14:16 57.94098 -0.50143 32023 ft 389 kts 200°
2026-05-06 14:16 57.88829 -0.52502 32036 ft 389 kts 200°
2026-05-06 14:17 57.83554 -0.54876 32031 ft 389 kts 200°
2026-05-06 14:17 57.78315 -0.57248 32034 ft 390 kts 200°
2026-05-06 14:18 57.73040 -0.59652 32033 ft 390 kts 200°
2026-05-06 14:18 57.67789 -0.62060 32027 ft 390 kts 200°
2026-05-06 14:19 57.62450 -0.64257 32016 ft 397 kts 189°
2026-05-06 14:19 57.59657 -0.63894 32017 ft 409 kts 172°
2026-05-06 14:19 57.56960 -0.62040 32031 ft 420 kts 155°
2026-05-06 14:20 57.54569 -0.58790 32031 ft 433 kts 139°
2026-05-06 14:20 57.52678 -0.54368 32033 ft 441 kts 122°
2026-05-06 14:20 57.51457 -0.49128 32030 ft 444 kts 105°
2026-05-06 14:20 57.51004 -0.43529 32035 ft 445 kts 89°
2026-05-06 14:21 57.51353 -0.37782 32032 ft 444 kts 72°
2026-05-06 14:21 57.52488 -0.32465 32033 ft 441 kts 56°
2026-05-06 14:21 57.54329 -0.27885 32038 ft 445 kts 40°
2026-05-06 14:21 57.56749 -0.24278 32038 ft 449 kts 25°
2026-05-06 14:22 57.59592 -0.21823 32041 ft 452 kts 12°
2026-05-06 14:22 57.62675 -0.20623 32035 ft 456 kts 359°
2026-05-06 14:22 57.69167 -0.19935 32036 ft 476 kts 357°
2026-05-06 14:23 57.75883 -0.19315 32031 ft 484 kts 357°
2026-05-06 14:23 57.82517 -0.19825 32036 ft 471 kts 341°
2026-05-06 14:24 57.85583 -0.21786 32033 ft 461 kts 329°
2026-05-06 14:24 57.88311 -0.24861 32032 ft 453 kts 317°
2026-05-06 14:24 57.90580 -0.28893 32038 ft 445 kts 306°
2026-05-06 14:24 57.91784 -0.31990 32018 ft 441 kts 298°
2026-05-06 14:25 57.95191 -0.43737 32027 ft 439 kts 295°
2026-05-06 14:25 57.97601 -0.52236 32031 ft 438 kts 295°
2026-05-06 14:26 58.00462 -0.62364 32024 ft 438 kts 295°
2026-05-06 14:26 58.03163 -0.71949 32027 ft 437 kts 295°
2026-05-06 14:27 58.05146 -0.82673 32021 ft 432 kts 275°
2026-05-06 14:27 58.05154 -0.88324 32024 ft 432 kts 263°
2026-05-06 14:27 58.04496 -0.93798 32025 ft 435 kts 252°
2026-05-06 14:28 58.03182 -0.98963 32024 ft 440 kts 240°
2026-05-06 14:28 58.01277 -1.03526 32025 ft 445 kts 231°
2026-05-06 14:28 57.96950 -1.11944 32036 ft 447 kts 230°
2026-05-06 14:29 57.92603 -1.20341 32028 ft 448 kts 230°
2026-05-06 14:29 57.88249 -1.28745 32026 ft 448 kts 230°
2026-05-06 14:30 57.83893 -1.37140 32015 ft 448 kts 230°
2026-05-06 14:30 57.79539 -1.45523 32016 ft 449 kts 230°
2026-05-06 14:31 57.75284 -1.53709 32018 ft 450 kts 230°
2026-05-06 14:31 57.70920 -1.62098 32014 ft 450 kts 230°
2026-05-06 14:32 57.66520 -1.70548 32013 ft 451 kts 230°
2026-05-06 14:32 57.62133 -1.78963 32012 ft 452 kts 230°
2026-05-06 14:33 57.57756 -1.87356 32014 ft 452 kts 230°
2026-05-06 14:33 57.53411 -1.95686 32006 ft 453 kts 230°
2026-05-06 14:34 57.49018 -2.04102 32007 ft 453 kts 230°
2026-05-06 14:34 57.44620 -2.12519 32014 ft 454 kts 229°
2026-05-06 14:35 57.40215 -2.20942 32012 ft 454 kts 229°
2026-05-06 14:35 57.35802 -2.29366 32017 ft 455 kts 229°
2026-05-06 14:36 57.31386 -2.37779 32018 ft 456 kts 229°
2026-05-06 14:36 57.27523 -2.45284 32015 ft 454 kts 235°
2026-05-06 14:37 57.25807 -2.50162 32010 ft 449 kts 246°
2026-05-06 14:37 57.24710 -2.55531 32008 ft 445 kts 257°
2026-05-06 14:37 57.23269 -2.66577 31995 ft 445 kts 258°
2026-05-06 14:38 57.21839 -2.77710 31975 ft 446 kts 258°
2026-05-06 14:38 57.19661 -2.88429 31978 ft 452 kts 241°
2026-05-06 14:39 57.16174 -2.98116 31971 ft 454 kts 239°
2026-05-06 14:39 57.12647 -3.07776 31974 ft 454 kts 239°
2026-05-06 14:40 57.09114 -3.17440 31973 ft 455 kts 239°
2026-05-06 14:40 57.05606 -3.27010 31923 ft 454 kts 239°
2026-05-06 14:41 57.03842 -3.31802 31618 ft 451 kts 239°
2026-05-06 14:41 57.02085 -3.36569 31108 ft 449 kts 239°
2026-05-06 14:41 57.00338 -3.41299 30631 ft 446 kts 239°
2026-05-06 14:41 56.98618 -3.45947 30110 ft 443 kts 239°
2026-05-06 14:42 56.96889 -3.50602 29607 ft 441 kts 239°
2026-05-06 14:42 56.95155 -3.55266 29187 ft 437 kts 239°
2026-05-06 14:42 56.93466 -3.59803 28761 ft 434 kts 239°
2026-05-06 14:42 56.91766 -3.64358 28322 ft 431 kts 239°
2026-05-06 14:43 56.90078 -3.68871 27900 ft 428 kts 239°
2026-05-06 14:43 56.88399 -3.73356 27474 ft 426 kts 239°
2026-05-06 14:43 56.86730 -3.77801 27068 ft 423 kts 239°
2026-05-06 14:43 56.85077 -3.82198 26669 ft 420 kts 239°
2026-05-06 14:44 56.83421 -3.86596 26259 ft 418 kts 239°
2026-05-06 14:44 56.81780 -3.90940 25872 ft 415 kts 239°
2026-05-06 14:44 56.80141 -3.95272 25463 ft 413 kts 239°
2026-05-06 14:45 56.76899 -4.03840 24692 ft 408 kts 239°
2026-05-06 14:45 56.75292 -4.08083 24294 ft 406 kts 239°
2026-05-06 14:45 56.73689 -4.12301 23884 ft 404 kts 239°
2026-05-06 14:45 56.72096 -4.16499 23517 ft 400 kts 239°
2026-05-06 14:46 56.70514 -4.20665 23052 ft 399 kts 239°
2026-05-06 14:46 56.68946 -4.24805 22615 ft 396 kts 239°
2026-05-06 14:46 56.67392 -4.28920 22173 ft 393 kts 239°
2026-05-06 14:46 56.65849 -4.33018 21744 ft 391 kts 239°
2026-05-06 14:47 56.64320 -4.37091 21295 ft 389 kts 239°
2026-05-06 14:47 56.62805 -4.41141 20850 ft 386 kts 239°
2026-05-06 14:47 56.61326 -4.45114 20416 ft 384 kts 239°
2026-05-06 14:47 56.59838 -4.49127 19977 ft 382 kts 238°
2026-05-06 14:48 56.58360 -4.53118 19553 ft 379 kts 238°
2026-05-06 14:48 56.56907 -4.57060 19097 ft 377 kts 238°
2026-05-06 14:48 56.55451 -4.61026 18668 ft 375 kts 238°
2026-05-06 14:48 56.54013 -4.64964 18294 ft 371 kts 238°
2026-05-06 14:49 56.52629 -4.68758 18199 ft 369 kts 238°
2026-05-06 14:49 56.51174 -4.72750 18079 ft 374 kts 238°
2026-05-06 14:49 56.49737 -4.76686 18010 ft 372 kts 238°
2026-05-06 14:49 56.48333 -4.80536 18022 ft 371 kts 238°
2026-05-06 14:50 56.46890 -4.84488 18019 ft 372 kts 238°
2026-05-06 14:50 56.45462 -4.88405 18023 ft 373 kts 238°
2026-05-06 14:50 56.44051 -4.92268 18020 ft 373 kts 238°
2026-05-06 14:50 56.42616 -4.96188 18021 ft 373 kts 238°
2026-05-06 14:51 56.41201 -5.00050 18021 ft 373 kts 238°
2026-05-06 14:51 56.39754 -5.03996 18021 ft 372 kts 238°
2026-05-06 14:51 56.38314 -5.07922 18021 ft 381 kts 238°
2026-05-06 14:51 56.36899 -5.12103 18016 ft 399 kts 246°
2026-05-06 14:52 56.36051 -5.16858 18020 ft 398 kts 261°
2026-05-06 14:52 56.35940 -5.21829 18020 ft 397 kts 276°
2026-05-06 14:52 56.36578 -5.26669 18018 ft 399 kts 290°
2026-05-06 14:52 56.37942 -5.31098 18021 ft 402 kts 305°
2026-05-06 14:53 56.39912 -5.34704 18019 ft 406 kts 320°
2026-05-06 14:53 56.42333 -5.37247 18021 ft 412 kts 335°
2026-05-06 14:53 56.45119 -5.38611 18021 ft 417 kts 349°
2026-05-06 14:53 56.48031 -5.38629 18022 ft 423 kts
2026-05-06 14:54 56.50898 -5.37308 18021 ft 430 kts 19°
2026-05-06 14:54 56.53555 -5.34783 18025 ft 433 kts 28°
2026-05-06 14:54 56.56137 -5.31954 18022 ft 434 kts 28°
2026-05-06 14:54 56.58724 -5.29113 18026 ft 434 kts 28°
2026-05-06 14:55 56.61306 -5.26276 18019 ft 433 kts 28°
2026-05-06 14:55 56.63890 -5.23432 18018 ft 433 kts 28°
2026-05-06 14:55 56.66469 -5.20594 18013 ft 432 kts 28°
2026-05-06 14:55 56.69049 -5.17759 18020 ft 434 kts 28°
2026-05-06 14:56 56.71631 -5.14905 18021 ft 434 kts 28°
2026-05-06 14:56 56.74213 -5.12049 18017 ft 433 kts 28°
2026-05-06 14:56 56.76795 -5.09189 18020 ft 434 kts 28°
2026-05-06 14:56 56.79371 -5.06336 18018 ft 433 kts 28°
2026-05-06 14:57 56.81946 -5.03480 18014 ft 433 kts 28°
2026-05-06 14:57 56.84493 -5.00652 18019 ft 434 kts 28°
2026-05-06 14:57 56.87068 -4.97789 18018 ft 433 kts 28°
2026-05-06 14:57 56.89652 -4.94912 18014 ft 434 kts 28°
2026-05-06 14:58 56.92236 -4.92030 18015 ft 434 kts 28°
2026-05-06 14:58 56.94811 -4.89155 18012 ft 434 kts 28°
2026-05-06 14:58 56.97393 -4.86266 18014 ft 435 kts 28°
2026-05-06 14:58 56.99972 -4.83379 18014 ft 434 kts 28°
2026-05-06 14:59 57.02538 -4.80504 18014 ft 434 kts 28°
2026-05-06 14:59 57.05100 -4.77630 18015 ft 434 kts 28°
2026-05-06 14:59 57.07674 -4.74738 18007 ft 434 kts 28°
2026-05-06 14:59 57.10250 -4.71839 18010 ft 434 kts 28°
2026-05-06 15:00 57.12834 -4.68924 18012 ft 434 kts 28°
2026-05-06 15:00 57.15405 -4.66021 18014 ft 434 kts 28°
2026-05-06 15:00 57.17978 -4.63110 18008 ft 434 kts 28°
2026-05-06 15:00 57.20550 -4.60199 18013 ft 434 kts 28°
2026-05-06 15:01 57.23036 -4.57380 18011 ft 434 kts 28°
2026-05-06 15:01 57.25609 -4.54462 18015 ft 433 kts 28°
2026-05-06 15:01 57.28136 -4.51593 18007 ft 435 kts 28°
2026-05-06 15:01 57.30761 -4.48606 18009 ft 434 kts 28°
2026-05-06 15:02 57.33335 -4.45674 18009 ft 434 kts 28°
2026-05-06 15:02 57.35907 -4.42741 18015 ft 435 kts 28°
2026-05-06 15:02 57.38481 -4.39800 18012 ft 435 kts 28°
2026-05-06 15:02 57.40191 -4.37844 18015 ft 435 kts 28°
2026-05-06 15:03 57.42764 -4.34894 18019 ft 435 kts 28°
2026-05-06 15:03 57.45340 -4.31933 18021 ft 435 kts 28°
2026-05-06 15:03 57.47777 -4.29129 18026 ft 435 kts 28°
2026-05-06 15:03 57.50263 -4.26267 18031 ft 434 kts 28°
2026-05-06 15:04 57.52829 -4.23309 18027 ft 435 kts 28°
2026-05-06 15:04 57.55402 -4.20339 18018 ft 435 kts 28°
2026-05-06 15:04 57.57964 -4.17377 18028 ft 435 kts 28°
2026-05-06 15:04 57.60539 -4.14399 18021 ft 435 kts 28°
2026-05-06 15:05 57.63108 -4.11424 18017 ft 435 kts 28°
2026-05-06 15:05 57.65684 -4.08436 18018 ft 435 kts 28°
2026-05-06 15:05 57.68143 -4.05580 18017 ft 435 kts 28°
2026-05-06 15:05 57.70719 -4.02584 18023 ft 435 kts 28°
2026-05-06 15:06 57.72454 -4.00563 18024 ft 435 kts 28°
2026-05-06 15:06 57.74484 -3.98198 18019 ft 435 kts 28°
2026-05-06 15:06 57.76786 -3.95512 18021 ft 435 kts 28°
2026-05-06 15:06 57.79416 -3.92441 18021 ft 435 kts 28°
2026-05-06 15:07 57.81987 -3.89436 18034 ft 435 kts 28°
2026-05-06 15:07 57.84557 -3.86427 18025 ft 435 kts 28°
2026-05-06 15:07 57.87124 -3.83417 18022 ft 435 kts 28°
2026-05-06 15:07 57.89656 -3.80443 18027 ft 435 kts 28°
2026-05-06 15:08 57.92252 -3.77387 18024 ft 435 kts 28°
2026-05-06 15:08 57.94785 -3.74402 18029 ft 435 kts 28°
2026-05-06 15:08 57.97353 -3.71372 18035 ft 435 kts 28°
2026-05-06 15:08 57.99919 -3.68341 18028 ft 435 kts 29°
2026-05-06 15:09 58.02482 -3.65310 18029 ft 435 kts 29°
2026-05-06 15:09 58.05047 -3.62272 18032 ft 435 kts 28°
2026-05-06 15:09 58.07617 -3.59224 18031 ft 435 kts 29°
2026-05-06 15:09 58.10177 -3.56181 18034 ft 435 kts 29°
2026-05-06 15:10 58.12743 -3.53129 18030 ft 435 kts 29°
2026-05-06 15:10 58.15302 -3.50079 18029 ft 435 kts 29°
2026-05-06 15:10 58.17869 -3.47016 18034 ft 435 kts 29°
2026-05-06 15:10 58.20433 -3.43951 18038 ft 435 kts 29°
2026-05-06 15:11 58.22996 -3.40880 18037 ft 436 kts 29°
2026-05-06 15:11 58.25556 -3.37809 18042 ft 435 kts 29°
2026-05-06 15:11 58.28086 -3.34771 18042 ft 435 kts 29°
2026-05-06 15:11 58.30646 -3.31679 18047 ft 436 kts 30°
2026-05-06 15:12 58.33142 -3.28393 18044 ft 437 kts 33°
2026-05-06 15:12 58.35571 -3.24909 18045 ft 438 kts 34°
2026-05-06 15:12 58.37998 -3.21398 18047 ft 438 kts 34°
2026-05-06 15:12 58.40431 -3.17869 18049 ft 438 kts 34°
2026-05-06 15:13 58.42856 -3.14344 18053 ft 438 kts 34°
2026-05-06 15:13 58.45281 -3.10809 18051 ft 438 kts 34°
2026-05-06 15:13 58.47706 -3.07266 18050 ft 439 kts 34°
2026-05-06 15:13 58.50124 -3.03723 18053 ft 439 kts 34°
2026-05-06 15:14 58.52550 -3.00160 18051 ft 439 kts 34°
2026-05-06 15:14 58.54973 -2.96595 18048 ft 439 kts 34°
2026-05-06 15:14 58.57233 -2.92664 17829 ft 442 kts 46°
2026-05-06 15:14 58.58983 -2.87800 17514 ft 443 kts 58°
2026-05-06 15:15 58.60498 -2.82689 17046 ft 440 kts 60°
2026-05-06 15:15 58.61573 -2.77197 16514 ft 439 kts 76°
2026-05-06 15:15 58.61900 -2.71403 16024 ft 435 kts 91°
2026-05-06 15:15 58.61464 -2.65701 15523 ft 430 kts 107°
2026-05-06 15:16 58.60299 -2.60485 15020 ft 423 kts 123°
2026-05-06 15:16 58.58512 -2.56088 14503 ft 415 kts 137°
2026-05-06 15:16 58.56288 -2.52668 14005 ft 407 kts 151°
2026-05-06 15:16 58.53777 -2.50325 13441 ft 398 kts 163°
2026-05-06 15:17 58.51144 -2.49126 12871 ft 390 kts 176°
2026-05-06 15:17 58.48463 -2.49051 12289 ft 383 kts 188°
2026-05-06 15:17 58.45881 -2.50065 11704 ft 377 kts 200°
2026-05-06 15:17 58.43504 -2.52068 11117 ft 371 kts 210°
2026-05-06 15:18 58.41230 -2.54414 10486 ft 370 kts 210°
2026-05-06 15:18 58.38963 -2.56730 9904 ft 368 kts 210°
2026-05-06 15:18 58.36709 -2.59013 9369 ft 364 kts 210°
2026-05-06 15:18 58.34494 -2.61244 9049 ft 360 kts 209°
2026-05-06 15:19 58.32279 -2.63472 8564 ft 359 kts 209°
2026-05-06 15:19 58.30079 -2.65681 7996 ft 356 kts 209°
2026-05-06 15:19 58.27894 -2.67871 7439 ft 353 kts 209°
2026-05-06 15:19 58.25728 -2.70040 6895 ft 350 kts 209°
2026-05-06 15:20 58.23582 -2.72186 6336 ft 346 kts 209°
2026-05-06 15:20 58.21461 -2.74304 5773 ft 343 kts 209°
2026-05-06 15:20 58.19349 -2.76410 5353 ft 343 kts 209°
2026-05-06 15:20 58.17286 -2.78461 5672 ft 332 kts 209°
2026-05-06 15:21 58.15290 -2.80440 5839 ft 315 kts 209°
2026-05-06 15:21 58.13374 -2.82339 5956 ft 312 kts 209°
2026-05-06 15:21 58.11442 -2.84253 6035 ft 314 kts 209°
2026-05-06 15:21 58.09503 -2.86174 6040 ft 314 kts 209°
2026-05-06 15:22 58.07573 -2.88083 6038 ft 313 kts 209°
2026-05-06 15:22 58.05637 -2.89996 6049 ft 313 kts 209°
2026-05-06 15:22 58.03702 -2.91905 6037 ft 314 kts 209°
2026-05-06 15:22 58.01767 -2.93813 6036 ft 314 kts 209°
2026-05-06 15:23 57.99831 -2.95718 6036 ft 314 kts 209°
2026-05-06 15:23 57.97894 -2.97623 6031 ft 314 kts 209°
2026-05-06 15:23 57.95961 -2.99522 6029 ft 314 kts 208°
2026-05-06 15:23 57.94025 -3.01421 6029 ft 313 kts 208°
2026-05-06 15:24 57.92116 -3.03291 6026 ft 313 kts 208°
2026-05-06 15:24 57.90323 -3.05045 5978 ft 312 kts 208°
2026-05-06 15:24 57.88406 -3.06919 5664 ft 310 kts 208°
2026-05-06 15:24 57.86493 -3.08786 5167 ft 309 kts 208°
2026-05-06 15:25 57.84585 -3.10647 4612 ft 308 kts 208°
2026-05-06 15:25 57.82729 -3.12601 4058 ft 306 kts 214°
2026-05-06 15:25 57.81062 -3.15066 3476 ft 304 kts 223°
2026-05-06 15:25 57.79619 -3.17712 3177 ft 296 kts 224°
2026-05-06 15:26 57.78117 -3.20441 3033 ft 305 kts 224°
2026-05-06 15:26 57.76581 -3.23209 2677 ft 306 kts 224°
2026-05-06 15:26 57.75036 -3.25981 1955 ft 309 kts 223°
2026-05-06 15:26 57.73473 -3.28784 1140 ft 313 kts 223°
2026-05-06 15:27 57.72407 -3.30699 206 ft 329 kts 223°
2026-05-06 15:27 57.71817 -3.31754 175 ft 317 kts 222°
2026-05-06 15:27 57.71321 -3.32627 36 ft 0 kts 221°